,,Stat6,,Stat2,,Stat8,,Stat9,,Stat10,,Wind1,,Wind1,
time,status,PA1M_AVG,status,PR1M_SUM,status,RH1M_AVG,status,SR1M_AVG,status,TA1M_AVG,status,W1dAve1m,status,W1sAve1m,
2003-11-12, 00:00:00,VALID,918.069,VALID,0,VALID,100,VALID,0.0169808,VALID,19.9434,VALID,357,VALID,0,
2003-11-12, 00:01:00,VALID,918.053,VALID,0,VALID,100,VALID,0.0169808,VALID,19.9507,VALID,357,VALID,0,
2003-11-12, 00:02:00,VALID,918.043,VALID,0,VALID,100,VALID,0.0339617,VALID,19.9429,VALID,357,VALID,0,
2003-11-12, 00:03:00,VALID,918.033,VALID,0,VALID,100,VALID,0,VALID,19.9407,VALID,357,VALID,0.0168968,
2003-11-12, 00:04:00,VALID,918.029,VALID,0,VALID,100,VALID,0.0169808,VALID,19.9469,VALID,357,VALID,0.164634,
2003-11-12, 00:05:00,VALID,918.024,VALID,0,VALID,100,VALID,-0.0169808,VALID,19.9705,VALID,6,VALID,0.322731,
2003-11-12, 00:06:00,VALID,918.006,VALID,0,VALID,100,VALID,-0.0679233,VALID,19.9611,VALID,6,VALID,0.331143,
2003-11-12, 00:07:00,VALID,918.017,VALID,0,VALID,100,VALID,-0.0849042,VALID,19.9745,VALID,6,VALID,0.179688,
2003-11-12, 00:08:00,VALID,917.994,VALID,0,VALID,100,VALID,-0.0849042,VALID,20.0004,VALID,6,VALID,0.22218,
2003-11-12, 00:09:00,VALID,917.975,VALID,0,VALID,100,VALID,-0.0849042,VALID,20.0031,VALID,6,VALID,0.148633,
2003-11-12, 00:10:00,VALID,917.964,VALID,0,VALID,100,VALID,-0.0509425,VALID,20.0163,VALID,6,VALID,0,
2003-11-12, 00:11:00,VALID,917.948,VALID,0,VALID,100,VALID,-0.0679233,VALID,19.9994,VALID,6,VALID,0,
2003-11-12, 00:12:00,VALID,917.933,VALID,0,VALID,100,VALID,-0.101885,VALID,19.9971,VALID,6,VALID,0,
2003-11-12, 00:13:00,VALID,917.908,VALID,0,VALID,100,VALID,-0.0849042,VALID,19.9517,VALID,355,VALID,0.177689,
2003-11-12, 00:14:00,VALID,917.907,VALID,0,VALID,100,VALID,-0.0849042,VALID,19.9549,VALID,355,VALID,0.0797991,
2003-11-12, 00:15:00,VALID,917.897,VALID,0,VALID,100,VALID,-0.0849042,VALID,19.9517,VALID,355,VALID,0,
2003-11-12, 00:16:00,VALID,917.89,VALID,0,VALID,100,VALID,-0.101885,VALID,19.9519,VALID,355,VALID,0,
2003-11-12, 00:17:00,VALID,917.885,VALID,0,VALID,100,VALID,-0.101885,VALID,19.9651,VALID,355,VALID,0,
2003-11-12, 00:18:00,VALID,917.894,VALID,0,VALID,100,VALID,-0.101885,VALID,19.9676,VALID,355,VALID,0,
2003-11-12, 00:19:00,VALID,917.889,VALID,0,VALID,100,VALID,-0.101885,VALID,19.971,VALID,355,VALID,0.00666921,
2003-11-12, 00:20:00,VALID,917.886,VALID,0,VALID,100,VALID,-0.0339617,VALID,19.9541,VALID,355,VALID,0,
2003-11-12, 00:21:00,VALID,917.881,VALID,0,VALID,100,VALID,0,VALID,19.9305,VALID,355,VALID,0,
2003-11-12, 00:22:00,VALID,917.881,VALID,0,VALID,100,VALID,0,VALID,19.9278,VALID,355,VALID,0,
2003-11-12, 00:23:00,VALID,917.87,VALID,0,VALID,100,VALID,0.0339617,VALID,19.9049,VALID,355,VALID,0,
2003-11-12, 00:24:00,VALID,917.859,VALID,0,VALID,100,VALID,0.0169808,VALID,19.895,VALID,355,VALID,0,
2003-11-12, 00:25:00,VALID,917.853,VALID,0,VALID,100,VALID,0.0169808,VALID,19.9054,VALID,355,VALID,0,
2003-11-12, 00:26:00,VALID,917.852,VALID,0,VALID,100,VALID,0,VALID,19.9017,VALID,355,VALID,0,
2003-11-12, 00:27:00,VALID,917.834,VALID,0,VALID,100,VALID,0.0169808,VALID,19.9052,VALID,355,VALID,0,
2003-11-12, 00:28:00,VALID,917.82,VALID,0,VALID,100,VALID,0,VALID,19.9151,VALID,355,VALID,0,
2003-11-12, 00:29:00,VALID,917.814,VALID,0,VALID,100,VALID,0.0169808,VALID,19.9144,VALID,355,VALID,0,
2003-11-12, 00:30:00,VALID,917.8,VALID,0,VALID,100,VALID,0.0169808,VALID,19.9211,VALID,355,VALID,0,
2003-11-12, 00:31:00,VALID,917.781,VALID,0,VALID,100,VALID,0.0169808,VALID,19.9149,VALID,355,VALID,0,
2003-11-12, 00:32:00,VALID,917.77,VALID,0,VALID,100,VALID,0.0169808,VALID,19.9116,VALID,355,VALID,0,
2003-11-12, 00:33:00,VALID,917.733,VALID,0,VALID,100,VALID,0,VALID,19.9313,VALID,355,VALID,0,
2003-11-12, 00:34:00,VALID,917.705,VALID,0,VALID,100,VALID,0.0169808,VALID,19.9119,VALID,355,VALID,0.0686141,
2003-11-12, 00:35:00,VALID,917.678,VALID,0,VALID,100,VALID,0.0169808,VALID,19.9176,VALID,355,VALID,0.0379724,
2003-11-12, 00:36:00,VALID,917.666,VALID,0,VALID,100,VALID,0,VALID,19.9179,VALID,355,VALID,0,
2003-11-12, 00:37:00,VALID,917.654,VALID,0,VALID,100,VALID,0,VALID,19.9186,VALID,355,VALID,0.170632,
2003-11-12, 00:38:00,VALID,917.644,VALID,0,VALID,100,VALID,0.0169808,VALID,19.9015,VALID,355,VALID,0.307231,
2003-11-12, 00:39:00,VALID,917.633,VALID,0,VALID,100,VALID,0,VALID,19.9275,VALID,355,VALID,0.375178,
2003-11-12, 00:40:00,VALID,917.635,VALID,0,VALID,100,VALID,0,VALID,19.937,VALID,355,VALID,0.498728,
2003-11-12, 00:41:00,VALID,917.628,VALID,0,VALID,100,VALID,-0.0169808,VALID,19.9504,VALID,360,VALID,0.532493,
2003-11-12, 00:42:00,VALID,917.627,VALID,0,VALID,100,VALID,0,VALID,19.97,VALID,5,VALID,0.607887,
2003-11-12, 00:43:00,VALID,917.624,VALID,0,VALID,100,VALID,-0.0169808,VALID,19.9862,VALID,16,VALID,0.833274,
2003-11-12, 00:44:00,VALID,917.605,VALID,0,VALID,100,VALID,-0.0169808,VALID,19.983,VALID,18,VALID,0.576219,
2003-11-12, 00:45:00,VALID,917.605,VALID,0,VALID,100,VALID,0,VALID,19.9859,VALID,6,VALID,0.520089,
2003-11-12, 00:46:00,VALID,917.587,VALID,0,VALID,100,VALID,0,VALID,19.9889,VALID,11,VALID,0.557706,
2003-11-12, 00:47:00,VALID,917.576,VALID,0,VALID,100,VALID,0,VALID,19.9924,VALID,12,VALID,0.556402,
2003-11-12, 00:48:00,VALID,917.539,VALID,0,VALID,100,VALID,0.0169808,VALID,19.9984,VALID,9,VALID,0.560138,
2003-11-12, 00:49:00,VALID,917.525,VALID,0,VALID,100,VALID,0.0339617,VALID,20.0148,VALID,5,VALID,0.539236,
2003-11-12, 00:50:00,VALID,917.513,VALID,0,VALID,100,VALID,-0.0339617,VALID,20.0282,VALID,17,VALID,0.824653,
2003-11-12, 00:51:00,VALID,917.502,VALID,0,VALID,100,VALID,-0.101885,VALID,20.0227,VALID,15,VALID,0.711328,
2003-11-12, 00:52:00,VALID,917.482,VALID,0,VALID,100,VALID,-0.0849042,VALID,20.013,VALID,7,VALID,0.492746,
2003-11-12, 00:53:00,VALID,917.486,VALID,0,VALID,100,VALID,-0.0849042,VALID,19.9837,VALID,6,VALID,0.321948,
2003-11-12, 00:54:00,VALID,917.491,VALID,0,VALID,100,VALID,-0.101885,VALID,19.9872,VALID,7,VALID,0.356957,
2003-11-12, 00:55:00,VALID,917.483,VALID,0,VALID,100,VALID,-0.0849042,VALID,19.9641,VALID,360,VALID,0.781436,
2003-11-12, 00:56:00,VALID,917.487,VALID,0,VALID,100,VALID,-0.0679233,VALID,19.9087,VALID,3,VALID,1.1654,
2003-11-12, 00:57:00,VALID,917.477,VALID,0,VALID,100,VALID,-0.101885,VALID,19.8935,VALID,344,VALID,0.796317,
2003-11-12, 00:58:00,VALID,917.466,VALID,0,VALID,100,VALID,-0.0849042,VALID,19.8712,VALID,348,VALID,0.524325,
2003-11-12, 00:59:00,VALID,917.469,VALID,0,VALID,100,VALID,-0.101885,VALID,19.8702,VALID,294,VALID,0.293269,
2003-11-12, 01:00:00,VALID,917.469,VALID,0,VALID,100,VALID,-0.101885,VALID,19.8712,VALID,276,VALID,0,
2003-11-12, 01:01:00,VALID,917.474,VALID,0,VALID,100,VALID,-0.101885,VALID,19.8483,VALID,276,VALID,0,
2003-11-12, 01:02:00,VALID,917.488,VALID,0,VALID,100,VALID,-0.101885,VALID,19.8607,VALID,276,VALID,0,
2003-11-12, 01:03:00,VALID,917.498,VALID,0,VALID,100,VALID,-0.101885,VALID,19.8776,VALID,276,VALID,0,
2003-11-12, 01:04:00,VALID,917.523,VALID,0,VALID,100,VALID,-0.0849042,VALID,19.9069,VALID,276,VALID,0.028343,
2003-11-12, 01:05:00,VALID,917.533,VALID,0,VALID,100,VALID,-0.0849042,VALID,19.9353,VALID,276,VALID,0.117001,
2003-11-12, 01:06:00,VALID,917.553,VALID,0,VALID,100,VALID,-0.0339617,VALID,19.9795,VALID,276,VALID,0.0436357,
2003-11-12, 01:07:00,VALID,917.565,VALID,0,VALID,100,VALID,0,VALID,19.9959,VALID,276,VALID,0,
2003-11-12, 01:08:00,VALID,917.573,VALID,0,VALID,100,VALID,-0.0169808,VALID,20.0185,VALID,276,VALID,0,
2003-11-12, 01:09:00,VALID,917.57,VALID,0,VALID,100,VALID,-0.0169808,VALID,20.0279,VALID,276,VALID,0,
2003-11-12, 01:10:00,VALID,917.559,VALID,0,VALID,100,VALID,-0.0169808,VALID,20.0384,VALID,276,VALID,0,
2003-11-12, 01:11:00,VALID,917.564,VALID,0,VALID,100,VALID,0,VALID,20.0279,VALID,276,VALID,0.077567,
2003-11-12, 01:12:00,VALID,917.545,VALID,0,VALID,100,VALID,-0.0169808,VALID,20.0411,VALID,297,VALID,0.203993,
2003-11-12, 01:13:00,VALID,917.536,VALID,0,VALID,100,VALID,-0.0169808,VALID,20.0799,VALID,322,VALID,0.00855655,
2003-11-12, 01:14:00,VALID,917.531,VALID,0,VALID,100,VALID,-0.0339617,VALID,20.0958,VALID,322,VALID,0,
2003-11-12, 01:15:00,VALID,917.507,VALID,0,VALID,100,VALID,0,VALID,20.0992,VALID,322,VALID,0,
2003-11-12, 01:16:00,VALID,917.5,VALID,0,VALID,100,VALID,0,VALID,20.0823,VALID,322,VALID,0,
2003-11-12, 01:17:00,VALID,917.482,VALID,0,VALID,100,VALID,0,VALID,20.0799,VALID,338,VALID,0.202567,
2003-11-12, 01:18:00,VALID,917.479,VALID,0,VALID,100,VALID,-0.0169808,VALID,20.0605,VALID,359,VALID,0.105378,
2003-11-12, 01:19:00,VALID,917.462,VALID,0,VALID,100,VALID,0,VALID,20.0478,VALID,359,VALID,0.0376234,
2003-11-12, 01:20:00,VALID,917.447,VALID,0,VALID,100,VALID,-0.0339617,VALID,20.0312,VALID,359,VALID,0.00454215,
2003-11-12, 01:21:00,VALID,917.43,VALID,0,VALID,100,VALID,-0.0339617,VALID,20.0317,VALID,359,VALID,0.0605469,
2003-11-12, 01:22:00,VALID,917.4,VALID,0,VALID,100,VALID,0.0169808,VALID,20.051,VALID,359,VALID,0.2607,
2003-11-12, 01:23:00,VALID,917.38,VALID,0,VALID,100,VALID,0,VALID,20.0408,VALID,359,VALID,0.0784801,
2003-11-12, 01:24:00,VALID,917.365,VALID,0,VALID,100,VALID,0,VALID,20.0376,VALID,359,VALID,0.131324,
2003-11-12, 01:25:00,VALID,917.355,VALID,0,VALID,100,VALID,0.0169808,VALID,20.018,VALID,359,VALID,0.371652,
2003-11-12, 01:26:00,VALID,917.344,VALID,0,VALID,100,VALID,0.0169808,VALID,19.9986,VALID,359,VALID,0.0423329,
2003-11-12, 01:27:00,VALID,917.336,VALID,0,VALID,100,VALID,-0.0169808,VALID,19.9857,VALID,359,VALID,0.288154,
2003-11-12, 01:28:00,VALID,917.308,VALID,0,VALID,100,VALID,-0.0169808,VALID,19.9862,VALID,359,VALID,0.0304878,
2003-11-12, 01:29:00,VALID,917.293,VALID,0,VALID,100,VALID,-0.0339617,VALID,19.941,VALID,11,VALID,0.384487,
2003-11-12, 01:30:00,VALID,917.269,VALID,0,VALID,100,VALID,-0.0169808,VALID,19.9479,VALID,15,VALID,0.294398,
2003-11-12, 01:31:00,VALID,917.253,VALID,0,VALID,100,VALID,0,VALID,19.9569,VALID,18,VALID,0.475291,
2003-11-12, 01:32:00,VALID,917.241,VALID,0,VALID,100,VALID,-0.0169808,VALID,19.9571,VALID,6,VALID,0.670898,
2003-11-12, 01:33:00,VALID,917.213,VALID,0,VALID,100,VALID,0.0169808,VALID,19.9186,VALID,352,VALID,0.479725,
2003-11-12, 01:34:00,VALID,917.197,VALID,0,VALID,100,VALID,0,VALID,19.8958,VALID,358,VALID,0.264535,
2003-11-12, 01:35:00,VALID,917.175,VALID,0,VALID,100,VALID,0,VALID,19.8856,VALID,2,VALID,0.242188,
2003-11-12, 01:36:00,VALID,917.171,VALID,0,VALID,100,VALID,0,VALID,19.889,VALID,20,VALID,0.455602,
2003-11-12, 01:37:00,VALID,917.149,VALID,0,VALID,100,VALID,0.0169808,VALID,19.8761,VALID,329,VALID,0.536932,
2003-11-12, 01:38:00,VALID,917.141,VALID,0,VALID,100,VALID,0.0169808,VALID,19.8115,VALID,16,VALID,0.559375,
2003-11-12, 01:39:00,VALID,917.126,VALID,0,VALID,100,VALID,0,VALID,19.8018,VALID,354,VALID,0.62035,
2003-11-12, 01:40:00,VALID,917.121,VALID,0,VALID,100,VALID,-0.0169808,VALID,19.7894,VALID,18,VALID,0.815874,
2003-11-12, 01:41:00,VALID,917.102,VALID,0,VALID,100,VALID,0.0339617,VALID,19.7795,VALID,9,VALID,0.501272,
2003-11-12, 01:42:00,VALID,917.091,VALID,0,VALID,100,VALID,0.0169808,VALID,19.7917,VALID,11,VALID,0.443555,
2003-11-12, 01:43:00,VALID,917.077,VALID,0,VALID,100,VALID,0,VALID,19.8212,VALID,13,VALID,0.365785,
2003-11-12, 01:44:00,VALID,917.061,VALID,0,VALID,100,VALID,0.0339617,VALID,19.821,VALID,17,VALID,0.838299,
2003-11-12, 01:45:00,VALID,917.043,VALID,0,VALID,100,VALID,0.0339617,VALID,19.8085,VALID,352,VALID,0.704215,
2003-11-12, 01:46:00,VALID,917.036,VALID,0,VALID,100,VALID,0.0509425,VALID,19.815,VALID,10,VALID,0.456577,
2003-11-12, 01:47:00,VALID,917.014,VALID,0,VALID,100,VALID,0.0169808,VALID,19.8148,VALID,13,VALID,0.0255682,
2003-11-12, 01:48:00,VALID,916.993,VALID,0,VALID,100,VALID,0.0339617,VALID,19.818,VALID,13,VALID,0,
2003-11-12, 01:49:00,VALID,916.956,VALID,0,VALID,100,VALID,0,VALID,19.8043,VALID,13,VALID,0,
2003-11-12, 01:50:00,VALID,916.929,VALID,0,VALID,100,VALID,-0.0169808,VALID,19.8212,VALID,13,VALID,0,
2003-11-12, 01:51:00,VALID,916.896,VALID,0,VALID,100,VALID,0.0339617,VALID,19.8244,VALID,18,VALID,0.271587,
2003-11-12, 01:52:00,VALID,916.845,VALID,0,VALID,100,VALID,0.0509425,VALID,19.8374,VALID,33,VALID,0.600174,
2003-11-12, 01:53:00,VALID,916.818,VALID,0,VALID,100,VALID,0.0169808,VALID,19.86,VALID,2,VALID,0.226944,
2003-11-12, 01:54:00,VALID,916.792,VALID,0,VALID,100,VALID,0.0509425,VALID,19.8533,VALID,322,VALID,0.078311,
2003-11-12, 01:55:00,VALID,916.757,VALID,0,VALID,100,VALID,0.0169808,VALID,19.8215,VALID,322,VALID,0,
2003-11-12, 01:56:00,VALID,916.731,VALID,0,VALID,100,VALID,0,VALID,19.8085,VALID,322,VALID,0,
2003-11-12, 01:57:00,VALID,916.705,VALID,0,VALID,100,VALID,0,VALID,19.8148,VALID,322,VALID,0,
2003-11-12, 01:58:00,VALID,916.681,VALID,0,VALID,100,VALID,0,VALID,19.8312,VALID,323,VALID,0.0531994,
2003-11-12, 01:59:00,VALID,916.663,VALID,0,VALID,100,VALID,0.0509425,VALID,19.8667,VALID,335,VALID,0.337891,
2003-11-12, 02:00:00,VALID,916.666,VALID,0,VALID,100,VALID,0.0169808,VALID,19.8699,VALID,337,VALID,0.288542,
2003-11-12, 02:01:00,VALID,916.641,VALID,0,VALID,100,VALID,0,VALID,19.8796,VALID,225,VALID,0.35174,
2003-11-12, 02:02:00,VALID,916.649,VALID,0,VALID,100,VALID,0.0339617,VALID,19.8535,VALID,90,VALID,0.310454,
2003-11-12, 02:03:00,VALID,916.643,VALID,0,VALID,100,VALID,0.0169808,VALID,19.8796,VALID,11,VALID,0.586648,
2003-11-12, 02:04:00,VALID,916.638,VALID,0,VALID,100,VALID,0,VALID,19.9092,VALID,10,VALID,0.649891,
2003-11-12, 02:05:00,VALID,916.646,VALID,0,VALID,100,VALID,0,VALID,19.9089,VALID,37,VALID,0.982558,
2003-11-12, 02:06:00,VALID,916.639,VALID,0,VALID,100,VALID,0,VALID,19.9218,VALID,31,VALID,0.627431,
2003-11-12, 02:07:00,VALID,916.649,VALID,0,VALID,100,VALID,0,VALID,19.9186,VALID,5,VALID,0.553486,
2003-11-12, 02:08:00,VALID,916.65,VALID,0,VALID,100,VALID,0,VALID,19.8958,VALID,326,VALID,0.717014,
2003-11-12, 02:09:00,VALID,916.662,VALID,0,VALID,100,VALID,0,VALID,19.896,VALID,358,VALID,0.993207,
2003-11-12, 02:10:00,VALID,916.641,VALID,0,VALID,100,VALID,-0.0169808,VALID,19.8831,VALID,12,VALID,0.956055,
2003-11-12, 02:11:00,VALID,916.631,VALID,0,VALID,100,VALID,0,VALID,19.8473,VALID,6,VALID,0.369549,
2003-11-12, 02:12:00,VALID,916.61,VALID,0,VALID,100,VALID,0,VALID,19.8182,VALID,20,VALID,1.15796,
2003-11-12, 02:13:00,VALID,916.596,VALID,0,VALID,100,VALID,0,VALID,19.7924,VALID,9,VALID,1.07031,
2003-11-12, 02:14:00,VALID,916.602,VALID,0,VALID,100,VALID,0,VALID,19.7599,VALID,349,VALID,0.676758,
2003-11-12, 02:15:00,VALID,916.599,VALID,0,VALID,100,VALID,0,VALID,19.7571,VALID,271,VALID,0.282366,
2003-11-12, 02:16:00,VALID,916.588,VALID,0,VALID,100,VALID,0.0339617,VALID,19.741,VALID,152,VALID,0.403888,
2003-11-12, 02:17:01,VALID,916.599,VALID,0,VALID,100,VALID,0.0169808,VALID,19.7248,VALID,54,VALID,0.775152,
2003-11-12, 02:18:00,VALID,916.6,VALID,0,VALID,100,VALID,0,VALID,19.7248,VALID,19,VALID,0.662016,
2003-11-12, 02:19:00,VALID,916.615,VALID,0,VALID,100,VALID,0.0169808,VALID,19.7407,VALID,303,VALID,0.41276,
2003-11-12, 02:20:01,VALID,916.635,VALID,0,VALID,100,VALID,0,VALID,19.7087,VALID,187,VALID,0.339367,
2003-11-12, 02:21:00,VALID,916.628,VALID,0,VALID,100,VALID,0.0169808,VALID,19.7089,VALID,196,VALID,0.285792,
2003-11-12, 02:22:00,VALID,916.636,VALID,0,VALID,100,VALID,0,VALID,19.7017,VALID,53,VALID,0.58817,
2003-11-12, 02:23:00,VALID,916.621,VALID,0,VALID,100,VALID,0,VALID,19.6826,VALID,211,VALID,0.646802,
2003-11-12, 02:24:01,VALID,916.619,VALID,0,VALID,100,VALID,-0.0169808,VALID,19.657,VALID,328,VALID,0.579985,
2003-11-12, 02:25:00,VALID,916.621,VALID,0,VALID,100,VALID,0,VALID,19.6436,VALID,1,VALID,0.0832698,
2003-11-12, 02:26:00,VALID,916.619,VALID,0,VALID,100,VALID,0.0169808,VALID,19.6697,VALID,1,VALID,0.0167411,
2003-11-12, 02:27:00,VALID,916.631,VALID,0,VALID,100,VALID,0.0169808,VALID,19.6764,VALID,1,VALID,0.000726744,
2003-11-12, 02:28:00,VALID,916.617,VALID,0,VALID,100,VALID,0,VALID,19.6796,VALID,52,VALID,0.212358,
2003-11-12, 02:29:00,VALID,916.635,VALID,0,VALID,100,VALID,0,VALID,19.6734,VALID,49,VALID,0.298735,
2003-11-12, 02:30:00,VALID,916.631,VALID,0,VALID,100,VALID,0.0169808,VALID,19.6597,VALID,62,VALID,0.317406,
2003-11-12, 02:31:00,VALID,916.637,VALID,0,VALID,100,VALID,0.0339617,VALID,19.6272,VALID,47,VALID,0.298363,
2003-11-12, 02:32:00,VALID,916.648,VALID,0,VALID,100,VALID,0,VALID,19.6443,VALID,199,VALID,0.669779,
2003-11-12, 02:33:00,VALID,916.636,VALID,0,VALID,100,VALID,0.0339617,VALID,19.6086,VALID,237,VALID,1.00838,
2003-11-12, 02:34:01,VALID,916.63,VALID,0,VALID,100,VALID,0.0169808,VALID,19.5629,VALID,244,VALID,0.557884,
2003-11-12, 02:35:00,VALID,916.632,VALID,0,VALID,100,VALID,0,VALID,19.5638,VALID,187,VALID,0.472098,
2003-11-12, 02:36:00,VALID,916.634,VALID,0,VALID,100,VALID,-0.0509425,VALID,19.5802,VALID,121,VALID,0.235491,
2003-11-12, 02:37:00,VALID,916.642,VALID,0,VALID,100,VALID,-0.0679233,VALID,19.5899,VALID,63,VALID,0.491824,
2003-11-12, 02:38:00,VALID,916.643,VALID,0,VALID,100,VALID,-0.0339617,VALID,19.5936,VALID,238,VALID,0.709121,
2003-11-12, 02:39:00,VALID,916.643,VALID,0,VALID,100,VALID,-0.0169808,VALID,19.5546,VALID,252,VALID,0.581395,
2003-11-12, 02:40:00,VALID,916.643,VALID,0,VALID,100,VALID,-0.0339617,VALID,19.5382,VALID,262,VALID,0.672492,
2003-11-12, 02:41:00,VALID,916.646,VALID,0,VALID,100,VALID,-0.0339617,VALID,19.5541,VALID,17,VALID,1.1109,
2003-11-12, 02:42:00,VALID,916.645,VALID,0,VALID,100,VALID,-0.0679233,VALID,19.5897,VALID,346,VALID,0.685192,
2003-11-12, 02:43:00,VALID,916.667,VALID,0,VALID,100,VALID,-0.0339617,VALID,19.5802,VALID,286,VALID,0.358203,
2003-11-12, 02:44:01,VALID,916.648,VALID,0,VALID,100,VALID,-0.0509425,VALID,19.574,VALID,39,VALID,0.277439,
2003-11-12, 02:45:00,VALID,916.673,VALID,0,VALID,100,VALID,-0.0509425,VALID,19.5606,VALID,2,VALID,0.491824,
2003-11-12, 02:46:00,VALID,916.672,VALID,0,VALID,100,VALID,-0.0679233,VALID,19.5638,VALID,3,VALID,0.0245028,
2003-11-12, 02:47:01,VALID,916.679,VALID,0,VALID,100,VALID,-0.0339617,VALID,19.5768,VALID,26,VALID,0.827939,
2003-11-12, 02:48:00,VALID,916.677,VALID,0,VALID,100,VALID,-0.0339617,VALID,19.5941,VALID,20,VALID,0.678906,
2003-11-12, 02:49:00,VALID,916.666,VALID,0,VALID,100,VALID,-0.0339617,VALID,19.5966,VALID,15,VALID,1.0103,
2003-11-12, 02:50:00,VALID,916.666,VALID,0,VALID,100,VALID,0,VALID,19.5959,VALID,329,VALID,0.395275,
2003-11-12, 02:51:00,VALID,916.644,VALID,0,VALID,100,VALID,0.0339617,VALID,19.6081,VALID,20,VALID,0.956424,
2003-11-12, 02:52:00,VALID,916.653,VALID,0,VALID,100,VALID,0.0339617,VALID,19.6247,VALID,1,VALID,0.964935,
2003-11-12, 02:53:00,VALID,916.646,VALID,0,VALID,100,VALID,0.0509425,VALID,19.6115,VALID,346,VALID,0.186384,
2003-11-12, 02:54:00,VALID,916.615,VALID,0,VALID,100,VALID,0.0169808,VALID,19.6078,VALID,4,VALID,0.484375,
2003-11-12, 02:55:01,VALID,916.618,VALID,0,VALID,100,VALID,0.0509425,VALID,19.5884,VALID,15,VALID,0.972842,
2003-11-12, 02:56:01,VALID,916.598,VALID,0,VALID,100,VALID,0.0509425,VALID,19.585,VALID,14,VALID,0.706101,
2003-11-12, 02:57:00,VALID,916.606,VALID,0,VALID,100,VALID,0.0679233,VALID,19.5914,VALID,3,VALID,0.115327,
2003-11-12, 02:58:00,VALID,916.593,VALID,0,VALID,100,VALID,0.101885,VALID,19.5817,VALID,19,VALID,0.370384,
2003-11-12, 02:59:00,VALID,916.598,VALID,0,VALID,100,VALID,0.0849042,VALID,19.5688,VALID,329,VALID,0.238735,
2003-11-12, 03:00:01,VALID,916.596,VALID,0,VALID,100,VALID,0.0849042,VALID,19.5658,VALID,274,VALID,0.00457317,
2003-11-12, 03:01:01,VALID,916.597,VALID,0,VALID,100,VALID,0.0679233,VALID,19.5589,VALID,296,VALID,0.113194,
2003-11-12, 03:02:00,VALID,916.575,VALID,0,VALID,100,VALID,0.0339617,VALID,19.5725,VALID,7,VALID,0.775391,
2003-11-12, 03:03:00,VALID,916.581,VALID,0,VALID,100,VALID,0.0679233,VALID,19.5596,VALID,296,VALID,0.879192,
2003-11-12, 03:04:00,VALID,916.58,VALID,0,VALID,100,VALID,0.0509425,VALID,19.5499,VALID,189,VALID,0.180088,
2003-11-12, 03:05:00,VALID,916.584,VALID,0,VALID,100,VALID,0.0169808,VALID,19.5243,VALID,72,VALID,0.485305,
2003-11-12, 03:06:00,VALID,916.595,VALID,0,VALID,100,VALID,-0.0509425,VALID,19.5385,VALID,30,VALID,0.478711,
2003-11-12, 03:07:00,VALID,916.598,VALID,0,VALID,100,VALID,-0.0679233,VALID,19.5323,VALID,22,VALID,0.66424,
2003-11-12, 03:08:00,VALID,916.608,VALID,0,VALID,100,VALID,-0.0339617,VALID,19.5353,VALID,19,VALID,0.303013,
2003-11-12, 03:09:00,VALID,916.607,VALID,0,VALID,100,VALID,-0.0169808,VALID,19.5514,VALID,19,VALID,0.108445,
2003-11-12, 03:10:00,VALID,916.617,VALID,0,VALID,100,VALID,-0.0339617,VALID,19.5541,VALID,12,VALID,0.135975,
2003-11-12, 03:11:00,VALID,916.607,VALID,0,VALID,100,VALID,-0.0679233,VALID,19.5643,VALID,10,VALID,0.165365,
2003-11-12, 03:12:00,VALID,916.593,VALID,0,VALID,100,VALID,-0.0509425,VALID,19.5479,VALID,10,VALID,0.000571646,
2003-11-12, 03:13:01,VALID,916.586,VALID,0,VALID,100,VALID,-0.0679233,VALID,19.5221,VALID,13,VALID,0.482329,
2003-11-12, 03:14:01,VALID,916.58,VALID,0,VALID,100,VALID,-0.0169808,VALID,19.5124,VALID,18,VALID,0.693132,
2003-11-12, 03:15:01,VALID,916.569,VALID,0,VALID,100,VALID,-0.0849042,VALID,19.529,VALID,14,VALID,0.640803,
2003-11-12, 03:16:01,VALID,916.578,VALID,0,VALID,100,VALID,-0.0509425,VALID,19.5382,VALID,15,VALID,0.454368,
2003-11-12, 03:17:00,VALID,916.571,VALID,0,VALID,100,VALID,-0.0679233,VALID,19.532,VALID,15,VALID,0.315104,
2003-11-12, 03:18:00,VALID,916.588,VALID,0,VALID,100,VALID,-0.0169808,VALID,19.5353,VALID,353,VALID,0.369395,
2003-11-12, 03:19:00,VALID,916.601,VALID,0,VALID,100,VALID,-0.0339617,VALID,19.5253,VALID,347,VALID,0.0877131,
2003-11-12, 03:20:00,VALID,916.601,VALID,0,VALID,100,VALID,-0.0169808,VALID,19.5385,VALID,347,VALID,0.0440341,
2003-11-12, 03:21:01,VALID,916.612,VALID,0,VALID,100,VALID,0,VALID,19.5313,VALID,347,VALID,0.0176711,
2003-11-12, 03:22:00,VALID,916.613,VALID,0,VALID,100,VALID,-0.0169808,VALID,19.5382,VALID,347,VALID,0.00218023,
2003-11-12, 03:23:01,VALID,916.594,VALID,0,VALID,100,VALID,0,VALID,19.5253,VALID,347,VALID,0.156436,
2003-11-12, 03:24:00,VALID,916.577,VALID,0,VALID,100,VALID,0,VALID,19.5348,VALID,347,VALID,0.245427,
2003-11-12, 03:25:01,VALID,916.583,VALID,0,VALID,100,VALID,-0.0339617,VALID,19.5382,VALID,347,VALID,0.258929,
2003-11-12, 03:26:00,VALID,916.569,VALID,0,VALID,100,VALID,-0.0169808,VALID,19.5477,VALID,347,VALID,0.352679,
2003-11-12, 03:27:00,VALID,916.554,VALID,0,VALID,100,VALID,-0.0339617,VALID,19.5606,VALID,347,VALID,0.195499,
2003-11-12, 03:28:00,VALID,916.549,VALID,0,VALID,100,VALID,-0.0339617,VALID,19.5867,VALID,347,VALID,0,
2003-11-12, 03:29:00,VALID,916.549,VALID,0,VALID,100,VALID,-0.0169808,VALID,19.5931,VALID,347,VALID,0,
2003-11-12, 03:30:01,VALID,916.543,VALID,0,VALID,100,VALID,-0.0169808,VALID,19.5931,VALID,347,VALID,0,
2003-11-12, 03:31:00,VALID,916.533,VALID,0,VALID,100,VALID,-0.0339617,VALID,19.5971,VALID,347,VALID,0,
2003-11-12, 03:32:00,VALID,916.534,VALID,0,VALID,100,VALID,-0.0509425,VALID,19.5641,VALID,347,VALID,0,
2003-11-12, 03:33:00,VALID,916.531,VALID,0,VALID,100,VALID,-0.0339617,VALID,19.5348,VALID,347,VALID,0.0138494,
2003-11-12, 03:34:00,VALID,916.526,VALID,0,VALID,100,VALID,0,VALID,19.5156,VALID,63,VALID,0.411458,
2003-11-12, 03:35:00,VALID,916.523,VALID,0,VALID,100,VALID,0,VALID,19.49,VALID,93,VALID,0.472656,
2003-11-12, 03:36:00,VALID,916.51,VALID,0,VALID,100,VALID,-0.0509425,VALID,19.4647,VALID,93,VALID,0.333854,
2003-11-12, 03:37:00,VALID,916.494,VALID,0,VALID,100,VALID,-0.0509425,VALID,19.4577,VALID,95,VALID,0.348895,
2003-11-12, 03:38:01,VALID,916.491,VALID,0,VALID,100,VALID,-0.0169808,VALID,19.4471,VALID,97,VALID,0.0401786,
2003-11-12, 03:39:00,VALID,916.493,VALID,0,VALID,100,VALID,-0.0169808,VALID,19.4605,VALID,97,VALID,0,
2003-11-12, 03:40:01,VALID,916.499,VALID,0,VALID,100,VALID,-0.0169808,VALID,19.4672,VALID,97,VALID,0,
2003-11-12, 03:41:01,VALID,916.514,VALID,0,VALID,100,VALID,-0.0339617,VALID,19.4868,VALID,97,VALID,0,
2003-11-12, 03:42:00,VALID,916.505,VALID,0,VALID,100,VALID,-0.0339617,VALID,19.4702,VALID,97,VALID,0,
2003-11-12, 03:43:01,VALID,916.515,VALID,0,VALID,100,VALID,-0.0509425,VALID,19.4933,VALID,97,VALID,0.0574777,
2003-11-12, 03:44:00,VALID,916.515,VALID,0,VALID,100,VALID,-0.0169808,VALID,19.4905,VALID,97,VALID,0.140625,
2003-11-12, 03:45:01,VALID,916.511,VALID,0,VALID,100,VALID,-0.0509425,VALID,19.4833,VALID,97,VALID,0.0493608,